GFSNIL_925_spd_336.txt.gz
Wind_Speed
26 26 26 26 26 26 25 24 21 21 22 24 25 25 25 27 30 30 31 32 34 33
23 24 24 21 20 21 21 22 21 21 23 22 23 24 23 26 29 28 30 32 32 33
21 20 18 16 16 16 17 17 18 19 20 21 22 23 23 26 26 27 29 29 30 33
19 17 14 13 13 13 13 14 16 17 18 19 19 19 22 24 25 26 27 28 30 32
18 16 14 13 10 10 13 14 16 16 16 17 18 20 22 24 24 24 26 29 31 34
19 17 14 10 9 11 12 13 15 16 17 18 19 19 20 22 24 25 27 29 30 32
21 18 13 10 11 12 12 14 15 14 15 16 18 20 19 20 22 24 26 28 28 30
20 16 14 12 11 11 13 14 14 14 14 15 16 18 19 18 20 22 24 27 28 30
21 18 15 12 11 11 12 13 13 13 15 17 17 18 16 18 21 23 25 28 27 26
23 20 16 13 12 12 11 12 13 14 15 17 16 15 16 17 19 21 23 25 25 25
25 20 16 13 13 11 10 12 14 15 15 16 17 15 15 16 18 20 20 20 23 25
27 22 17 15 12 10 12 13 14 14 15 15 16 13 14 15 17 16 17 17 17 18
28 23 18 14 12 11 11 13 12 14 14 14 14 12 14 15 15 14 15 15 15 13
27 22 16 12 12 11 11 10 12 14 15 13 12 11 11 13 13 11 14 15 15 16

GFSNIL_925_spd_339.txt.gz
Wind_Speed
28 28 27 26 25 26 25 24 20 19 20 21 23 24 24 26 27 28 29 30 31 33
28 28 27 24 22 21 19 17 17 18 20 21 22 22 23 25 26 25 27 29 29 32
28 26 23 20 19 16 14 14 15 15 16 17 18 19 20 22 24 25 25 26 29 31
26 24 21 20 16 14 12 12 13 13 14 15 16 16 17 19 20 22 24 25 27 29
25 23 22 21 16 13 13 12 13 14 14 15 16 15 17 19 20 21 23 24 25 28
28 26 25 21 16 14 13 12 12 13 14 15 16 16 17 18 19 20 22 24 25 27
31 30 27 21 17 14 12 13 12 11 12 13 14 15 16 17 18 19 20 21 23 25
34 31 27 23 20 15 13 12 11 11 10 10 12 13 14 15 16 16 19 22 23 24
35 33 31 26 22 17 13 12 11 11 10 10 12 12 12 13 16 16 18 21 22 20
38 36 33 28 22 18 14 12 11 11 10 10 11 11 12 12 14 16 17 18 18 18
41 38 34 29 24 19 15 13 12 12 9 10 10 11 10 11 13 14 15 14 14 16
44 41 36 31 26 20 16 14 13 11 8 9 11 9 10 11 11 13 12 11 11 12
45 43 39 33 26 19 17 14 11 10 8 9 10 8 9 9 9 11 11 11 10 9
43 43 37 29 23 19 16 13 10 10 8 8 8 8 9 8 8 7 8 9 12 12

GFSNIL_925_spd_345.txt.gz
Wind_Speed
37 35 33 30 26 24 21 18 15 14 14 12 12 11 11 13 14 16 17 18 18 19
37 36 35 31 27 25 22 19 15 13 11 10 10 10 10 11 11 12 13 15 16 18
37 36 34 31 29 26 21 18 15 12 10 9 9 9 10 10 9 11 11 12 13 15
39 36 34 33 30 27 22 19 16 13 11 10 10 9 10 10 10 11 11 12 13 14
38 35 34 34 31 28 25 21 17 14 13 12 11 11 11 11 11 12 12 12 13 14
37 36 36 35 33 29 27 24 20 17 15 13 12 12 12 12 12 13 13 12 13 13
39 39 38 36 34 31 29 27 23 20 16 14 13 12 12 12 13 13 12 12 12 12
41 40 38 37 36 33 31 29 25 21 18 15 14 13 12 12 13 14 13 12 11 12
40 40 40 38 37 35 33 31 27 25 21 18 16 13 12 13 15 14 14 12 11 12
42 41 42 40 38 38 37 34 32 27 23 21 17 14 14 14 15 15 13 13 12 11
42 43 42 40 41 41 40 39 35 31 26 22 18 16 15 15 16 14 13 13 11 9
43 41 42 42 44 43 42 41 38 33 27 24 20 18 17 17 16 14 13 11 9 8
41 40 41 46 43 44 43 45 40 33 28 25 21 19 19 18 17 15 12 10 8 7
37 41 44 45 42 45 42 41 38 34 28 25 23 21 20 19 19 16 13 10 9 8

GFSNIL_925_spd_348.txt.gz
Wind_Speed
39 38 36 33 29 26 24 21 16 15 16 15 13 12 12 13 13 14 15 15 16 15
39 39 38 35 31 28 25 22 18 17 15 13 12 12 12 12 11 12 11 12 13 14
40 39 37 35 33 30 26 23 20 18 16 13 12 12 12 11 11 11 10 10 11 12
39 38 37 35 34 31 27 24 21 19 17 16 14 13 13 12 12 11 10 10 11 11
38 36 36 36 35 31 29 26 23 21 20 18 16 15 15 14 13 13 12 11 12 11
38 38 38 38 36 32 30 28 26 24 23 21 19 17 16 15 15 15 14 13 13 10
40 41 41 40 37 34 33 31 29 28 26 23 21 19 18 17 17 15 14 13 12 11
42 41 40 39 38 37 35 34 32 32 30 26 24 22 20 19 17 16 15 13 12 12
40 39 40 40 39 38 37 36 34 36 33 31 28 24 21 20 19 17 16 14 13 12
40 41 42 42 40 40 41 39 39 39 37 35 30 25 24 22 20 19 16 15 14 13
40 42 42 42 43 42 42 42 42 42 41 37 34 28 26 24 22 20 17 15 14 13
41 42 39 40 42 43 42 43 45 46 44 42 37 31 28 26 24 21 18 16 15 13
36 36 37 42 42 42 44 45 44 46 47 45 40 33 31 29 26 23 20 17 15 14
32 36 39 40 38 39 40 35 39 42 45 45 41 36 32 31 29 27 23 20 17 15

GFSNIL_925_spd_354.txt.gz
Wind_Speed
31 30 29 27 25 24 23 21 20 23 22 19 17 17 16 15 15 14 15 15 14 11
30 30 30 28 26 26 24 21 20 22 22 21 19 18 17 17 16 16 16 15 15 15
32 32 30 27 28 27 25 24 24 24 23 21 21 20 19 18 17 17 17 16 16 16
30 31 30 29 28 28 25 25 26 25 25 24 22 21 21 20 18 20 18 17 17 17
28 28 30 31 29 27 28 27 27 26 26 26 24 23 23 23 21 22 22 20 18 18
28 29 30 31 30 28 28 28 28 28 29 28 27 25 25 24 23 23 22 21 21 19
30 32 34 32 30 30 30 30 31 32 31 33 30 29 27 26 25 23 22 21 21 21
31 31 30 30 31 30 30 31 31 30 32 34 33 35 32 30 28 25 23 22 22 22
26 29 32 32 32 32 32 32 32 33 34 34 38 42 43 39 31 27 25 25 24 22
24 27 29 33 33 33 35 34 34 35 35 37 41 45 47 45 38 31 29 27 24 23
24 27 27 28 29 30 30 33 34 35 36 38 38 45 49 48 45 34 31 30 29 26
19 23 25 27 29 31 30 29 31 32 32 34 37 42 49 48 42 36 35 34 30 29
18 21 24 25 27 27 29 30 29 31 33 37 38 38 46 50 38 35 33 30 31 35
19 19 21 22 23 23 25 25 28 30 32 35 37 37 41 48 42 37 34 32 31 32